Location: Casilda
(33.0440°S, 61.1680°W)
Time: 13:32:01
(UTC-03:00)

ISS - Pass Details

Date: 18 June 2018
Orbit: 402 x 406 km, 51.6° (Epoch: 22 June)

Event Time Altitude Azimuth Distance (km) Brightness Sun altitude
Exits shadow 06:57:17 20° 294° (WNW) 1,019 -2.2 -14.2°
Maximum altitude 06:57:49 21° 308° (NW) 992 -2.2 -14.1°
Drops below altitude 10° 07:00:21 10° 359° (N) 1,465 -0.8 -13.6°
Sets 07:02:44 0° 16° (NNE) 2,317 0.5 -13.1°
